Wetterdaten: Donnerstag, 30.05.2013
Datum Zeit Temperatur Luftfeuchte Luftdruck Regen Wind Richtung Richtung Taupunkt Windchill Windben
30.05.2013 00:00 4,1 C 91 % 1008,7 hPa 0,0 l/m 1,1 km/h (1 Bft) O-NO 67 2,8 C 3,7 C 1,6 km/h (1 Bft)
30.05.2013 00:05 4,0 C 91 % 1008,7 hPa 0,0 l/m 1,1 km/h (1 Bft) NO 45 2,7 C 3,6 C 2,4 km/h (1 Bft)
30.05.2013 00:10 4,0 C 91 % 1008,7 hPa 0,0 l/m 0,6 km/h (0 Bft) NO 45 2,7 C 3,5 C 0,0 km/h (0 Bft)
30.05.2013 00:15 3,9 C 91 % 1008,7 hPa 0,0 l/m 0,8 km/h (0 Bft) O-NO 67 2,6 C 3,5 C 2,3 km/h (1 Bft)
30.05.2013 00:20 4,0 C 91 % 1008,7 hPa 0,0 l/m 1,3 km/h (1 Bft) NO 45 2,7 C 3,5 C 4,3 km/h (1 Bft)
30.05.2013 00:25 3,8 C 91 % 1008,5 hPa 0,0 l/m 1,4 km/h (1 Bft) O-NO 67 2,5 C 3,4 C 2,1 km/h (1 Bft)
30.05.2013 00:30 3,8 C 92 % 1008,5 hPa 0,0 l/m 1,1 km/h (1 Bft) N-NO 22 2,6 C 3,3 C 0,0 km/h (0 Bft)
30.05.2013 00:35 3,6 C 92 % 1008,5 hPa 0,0 l/m 1,3 km/h (1 Bft) NO 45 2,4 C 3,2 C 0,0 km/h (0 Bft)
30.05.2013 00:40 3,2 C 92 % 1008,5 hPa 0,0 l/m 0,3 km/h (0 Bft) SW 225 2,0 C 2,9 C 0,0 km/h (0 Bft)
30.05.2013 00:45 3,1 C 92 % 1008,5 hPa 0,0 l/m 0,0 km/h (0 Bft) NO 45 1,9 C 2,7 C 0,0 km/h (0 Bft)
30.05.2013 00:50 3,2 C 92 % 1008,5 hPa 0,0 l/m 0,6 km/h (0 Bft) O-NO 67 2,0 C 2,5 C 3,4 km/h (1 Bft)
30.05.2013 00:55 3,1 C 92 % 1008,5 hPa 0,0 l/m 0,8 km/h (0 Bft) O 90 1,9 C 2,4 C 1,8 km/h (1 Bft)
30.05.2013 01:00 3,3 C 92 % 1008,5 hPa 0,0 l/m 1,0 km/h (0 Bft) O-SO 112 2,1 C 2,5 C 2,7 km/h (1 Bft)
30.05.2013 01:05 3,4 C 92 % 1008,5 hPa 0,0 l/m 1,3 km/h (1 Bft) O 90 2,2 C 2,7 C 0,0 km/h (0 Bft)
30.05.2013 01:10 3,2 C 92 % 1008,5 hPa 0,0 l/m 0,6 km/h (0 Bft) S-SW 202 2,0 C 2,9 C 0,0 km/h (0 Bft)
30.05.2013 01:15 3,3 C 92 % 1008,5 hPa 0,0 l/m 0,0 km/h (0 Bft) O 90 2,1 C 2,9 C 0,0 km/h (0 Bft)
30.05.2013 01:20 3,6 C 92 % 1008,5 hPa 0,0 l/m 0,0 km/h (0 Bft) S 180 2,4 C 3,3 C 0,0 km/h (0 Bft)
30.05.2013 01:25 3,8 C 92 % 1008,6 hPa 0,0 l/m 0,2 km/h (0 Bft) SO 135 2,6 C 3,4 C 0,0 km/h (0 Bft)
30.05.2013 01:30 3,9 C 92 % 1008,6 hPa 0,0 l/m 0,2 km/h (0 Bft) N 360 2,7 C 3,5 C 0,0 km/h (0 Bft)
30.05.2013 01:35 3,9 C 93 % 1008,6 hPa 0,0 l/m 0,0 km/h (0 Bft) NO 45 2,9 C 3,5 C 0,0 km/h (0 Bft)
30.05.2013 01:40 3,9 C 93 % 1008,6 hPa 0,0 l/m 0,0 km/h (0 Bft) SO 135 2,9 C 3,6 C 0,0 km/h (0 Bft)
30.05.2013 01:45 3,9 C 93 % 1008,4 hPa 0,0 l/m 0,0 km/h (0 Bft) S-SO 157 2,9 C 3,6 C 0,0 km/h (0 Bft)
30.05.2013 01:50 3,9 C 93 % 1008,4 hPa 0,0 l/m 0,0 km/h (0 Bft) N 360 2,9 C 3,6 C 0,0 km/h (0 Bft)
30.05.2013 01:55 4,0 C 92 % 1008,4 hPa 0,0 l/m 0,0 km/h (0 Bft) NO 45 2,8 C 3,6 C 0,0 km/h (0 Bft)
30.05.2013 02:00 4,1 C 93 % 1008,4 hPa 0,0 l/m 0,0 km/h (0 Bft) O 90 3,1 C 3,7 C 0,0 km/h (0 Bft)
30.05.2013 02:05 4,2 C 93 % 1008,3 hPa 0,0 l/m 0,0 km/h (0 Bft) SO 135 3,2 C 3,8 C 0,0 km/h (0 Bft)
30.05.2013 02:10 4,4 C 93 % 1008,3 hPa 0,0 l/m 0,0 km/h (0 Bft) O 90 3,4 C 4,0 C 0,0 km/h (0 Bft)
30.05.2013 02:15 4,5 C 93 % 1008,3 hPa 0,0 l/m 0,0 km/h (0 Bft) SW 225 3,5 C 4,1 C 0,0 km/h (0 Bft)
30.05.2013 02:20 4,5 C 93 % 1008,3 hPa 0,0 l/m 0,0 km/h (0 Bft) S 180 3,5 C 4,1 C 0,0 km/h (0 Bft)
30.05.2013 02:25 4,5 C 93 % 1008,2 hPa 0,0 l/m 0,0 km/h (0 Bft) S 180 3,5 C 4,1 C 0,0 km/h (0 Bft)
30.05.2013 02:30 4,5 C 93 % 1008,2 hPa 0,0 l/m 0,0 km/h (0 Bft) NO 45 3,5 C 4,2 C 0,0 km/h (0 Bft)
30.05.2013 02:35 4,6 C 93 % 1008,2 hPa 0,0 l/m 0,0 km/h (0 Bft) O 90 3,6 C 4,2 C 0,0 km/h (0 Bft)
30.05.2013 02:40 4,6 C 93 % 1008,2 hPa 0,0 l/m 0,0 km/h (0 Bft) W 270 3,6 C 4,3 C 0,0 km/h (0 Bft)
30.05.2013 02:45 4,6 C 93 % 1008,4 hPa 0,0 l/m 0,0 km/h (0 Bft) O-SO 112 3,6 C 4,3 C 0,0 km/h (0 Bft)
30.05.2013 02:50 4,8 C 93 % 1008,4 hPa 0,0 l/m 0,2 km/h (0 Bft) NO 45 3,8 C 4,3 C 0,0 km/h (0 Bft)
30.05.2013 02:55 4,8 C 93 % 1008,4 hPa 0,0 l/m 0,2 km/h (0 Bft) NW 315 3,8 C 4,4 C 0,0 km/h (0 Bft)
30.05.2013 03:00 4,8 C 93 % 1008,4 hPa 0,0 l/m 0,0 km/h (0 Bft) N-NO 22 3,8 C 4,4 C 0,0 km/h (0 Bft)
30.05.2013 03:05 4,8 C 93 % 1008,4 hPa 0,0 l/m 0,0 km/h (0 Bft) S-SO 157 3,8 C 4,4 C 0,0 km/h (0 Bft)
30.05.2013 03:10 4,8 C 93 % 1008,4 hPa 0,0 l/m 0,3 km/h (0 Bft) W-SW 247 3,8 C 4,4 C 2,1 km/h (1 Bft)
30.05.2013 03:15 4,8 C 93 % 1008,4 hPa 0,0 l/m 0,5 km/h (0 Bft) S-SW 202 3,8 C 4,4 C 0,0 km/h (0 Bft)
30.05.2013 03:20 4,8 C 93 % 1008,4 hPa 0,0 l/m 0,3 km/h (0 Bft) S-SW 202 3,8 C 4,4 C 0,0 km/h (0 Bft)
30.05.2013 03:25 4,8 C 92 % 1008,4 hPa 0,0 l/m 0,0 km/h (0 Bft) S-SW 202 3,6 C 4,4 C 0,0 km/h (0 Bft)
30.05.2013 03:30 4,8 C 92 % 1008,4 hPa 0,0 l/m 0,0 km/h (0 Bft) O-NO 67 3,6 C 4,4 C 0,0 km/h (0 Bft)
30.05.2013 03:35 4,9 C 92 % 1008,4 hPa 0,0 l/m 0,0 km/h (0 Bft) W-NW 292 3,7 C 4,4 C 0,0 km/h (0 Bft)
30.05.2013 03:40 4,8 C 92 % 1008,4 hPa 0,0 l/m 0,0 km/h (0 Bft) W-NW 292 3,6 C 4,4 C 0,0 km/h (0 Bft)
30.05.2013 03:45 4,8 C 92 % 1008,3 hPa 0,0 l/m 0,0 km/h (0 Bft) S 180 3,6 C 4,4 C 0,0 km/h (0 Bft)
30.05.2013 03:50 4,8 C 92 % 1008,3 hPa 0,0 l/m 0,0 km/h (0 Bft) S-SW 202 3,6 C 4,4 C 0,0 km/h (0 Bft)
30.05.2013 03:55 4,8 C 92 % 1008,3 hPa 0,0 l/m 0,0 km/h (0 Bft) O-NO 67 3,6 C 4,4 C 0,0 km/h (0 Bft)
30.05.2013 04:00 4,8 C 92 % 1008,3 hPa 0,0 l/m 0,0 km/h (0 Bft) N-NO 22 3,6 C 4,4 C 0,0 km/h (0 Bft)
30.05.2013 04:05 4,8 C 92 % 1008,1 hPa 0,0 l/m 0,0 km/h (0 Bft) NO 45 3,6 C 4,4 C 0,0 km/h (0 Bft)
30.05.2013 04:10 4,9 C 92 % 1008,1 hPa 0,0 l/m 0,6 km/h (0 Bft) O 90 3,7 C 4,4 C 2,3 km/h (1 Bft)
30.05.2013 04:15 4,9 C 92 % 1008,1 hPa 0,0 l/m 1,3 km/h (1 Bft) NO 45 3,7 C 4,5 C 2,1 km/h (1 Bft)
30.05.2013 04:20 5,0 C 92 % 1008,1 hPa 0,0 l/m 1,8 km/h (1 Bft) NO 45 3,8 C 4,5 C 2,3 km/h (1 Bft)
30.05.2013 04:25 5,0 C 92 % 1008,1 hPa 0,0 l/m 2,1 km/h (1 Bft) NO 45 3,8 C 4,5 C 2,4 km/h (1 Bft)
30.05.2013 04:30 4,9 C 92 % 1008,1 hPa 0,0 l/m 2,1 km/h (1 Bft) NO 45 3,7 C 4,5 C 3,1 km/h (1 Bft)
30.05.2013 04:35 4,9 C 92 % 1008,1 hPa 0,0 l/m 1,8 km/h (1 Bft) O-NO 67 3,7 C 4,5 C 2,4 km/h (1 Bft)
30.05.2013 04:40 4,9 C 92 % 1008,1 hPa 0,0 l/m 1,6 km/h (1 Bft) O 90 3,7 C 4,5 C 0,0 km/h (0 Bft)
30.05.2013 04:45 4,8 C 92 % 1007,9 hPa 0,0 l/m 1,0 km/h (0 Bft) SO 135 3,6 C 4,5 C 0,0 km/h (0 Bft)
30.05.2013 04:50 4,8 C 92 % 1007,9 hPa 0,0 l/m 0,6 km/h (0 Bft) SO 135 3,6 C 4,4 C 4,5 km/h (1 Bft)
30.05.2013 04:55 4,8 C 92 % 1007,9 hPa 0,0 l/m 0,8 km/h (0 Bft) S 180 3,6 C 4,3 C 0,0 km/h (0 Bft)
30.05.2013 05:00 4,6 C 92 % 1007,9 hPa 0,0 l/m 0,5 km/h (0 Bft) NO 45 3,4 C 4,2 C 0,0 km/h (0 Bft)
30.05.2013 05:05 4,6 C 92 % 1007,9 hPa 0,0 l/m 0,2 km/h (0 Bft) O 90 3,4 C 4,1 C 0,0 km/h (0 Bft)
30.05.2013 05:10 4,6 C 92 % 1007,9 hPa 0,0 l/m 0,3 km/h (0 Bft) NO 45 3,4 C 4,1 C 0,0 km/h (0 Bft)
30.05.2013 05:15 4,7 C 92 % 1007,9 hPa 0,0 l/m 0,3 km/h (0 Bft) O 90 3,5 C 4,2 C 1,6 km/h (1 Bft)
30.05.2013 05:20 4,8 C 92 % 1007,9 hPa 0,0 l/m 0,2 km/h (0 Bft) O-NO 67 3,6 C 4,3 C 0,0 km/h (0 Bft)
30.05.2013 05:25 4,8 C 92 % 1008,1 hPa 0,0 l/m 0,2 km/h (0 Bft) SO 135 3,6 C 4,3 C 0,0 km/h (0 Bft)
30.05.2013 05:30 4,9 C 92 % 1008,1 hPa 0,0 l/m 0,0 km/h (0 Bft) NO 45 3,7 C 4,4 C 0,0 km/h (0 Bft)
30.05.2013 05:35 4,9 C 92 % 1008,1 hPa 0,0 l/m 0,0 km/h (0 Bft) O 90 3,7 C 4,5 C 0,0 km/h (0 Bft)
30.05.2013 05:40 5,0 C 92 % 1008,1 hPa 0,0 l/m 0,0 km/h (0 Bft) NO 45 3,8 C 4,6 C 0,0 km/h (0 Bft)
30.05.2013 05:45 5,0 C 92 % 1008,2 hPa 0,0 l/m 0,0 km/h (0 Bft) N-NO 22 3,8 C 4,6 C 0,0 km/h (0 Bft)
30.05.2013 05:50 5,0 C 92 % 1008,2 hPa 0,0 l/m 0,0 km/h (0 Bft) N-NO 22 3,8 C 4,7 C 0,0 km/h (0 Bft)
30.05.2013 05:55 5,1 C 92 % 1008,2 hPa 0,0 l/m 0,0 km/h (0 Bft) N-NO 22 3,9 C 4,7 C 0,0 km/h (0 Bft)
30.05.2013 06:00 5,1 C 92 % 1008,2 hPa 0,0 l/m 0,2 km/h (0 Bft) N-NO 22 3,9 C 4,8 C 0,0 km/h (0 Bft)
30.05.2013 06:05 5,1 C 92 % 1008,6 hPa 0,0 l/m 0,2 km/h (0 Bft) W-SW 247 3,9 C 4,8 C 0,0 km/h (0 Bft)
30.05.2013 06:10 5,2 C 92 % 1008,6 hPa 0,0 l/m 0,2 km/h (0 Bft) NO 45 4,0 C 4,9 C 0,0 km/h (0 Bft)
30.05.2013 06:15 5,2 C 92 % 1008,6 hPa 0,0 l/m 0,2 km/h (0 Bft) NO 45 4,0 C 4,9 C 0,0 km/h (0 Bft)
30.05.2013 06:20 5,2 C 92 % 1008,6 hPa 0,0 l/m 0,0 km/h (0 Bft) N 360 4,0 C 5,0 C 1,6 km/h (1 Bft)
30.05.2013 06:25 5,1 C 92 % 1008,6 hPa 0,0 l/m 0,0 km/h (0 Bft) N-NO 22 3,9 C 5,0 C 0,0 km/h (0 Bft)
30.05.2013 06:30 5,1 C 92 % 1008,6 hPa 0,0 l/m 0,0 km/h (0 Bft) N-NO 22 3,9 C 5,0 C 0,0 km/h (0 Bft)
30.05.2013 06:35 5,0 C 93 % 1008,6 hPa 0,0 l/m 0,0 km/h (0 Bft) NO 45 4,0 C 5,0 C 2,4 km/h (1 Bft)
30.05.2013 06:40 5,0 C 93 % 1008,6 hPa 0,0 l/m 0,2 km/h (0 Bft) N-NW 337 4,0 C 5,0 C 0,0 km/h (0 Bft)
30.05.2013 06:45 5,1 C 93 % 1008,8 hPa 0,7 l/m 0,2 km/h (0 Bft) O-NO 67 4,1 C 5,0 C 0,0 km/h (0 Bft)
30.05.2013 06:50 5,1 C 94 % 1008,8 hPa 0,0 l/m 0,5 km/h (0 Bft) O 90 4,2 C 5,1 C 2,3 km/h (1 Bft)
30.05.2013 06:55 5,1 C 94 % 1008,8 hPa 0,0 l/m 1,1 km/h (1 Bft) O-NO 67 4,2 C 5,1 C 3,1 km/h (1 Bft)
30.05.2013 07:00 5,1 C 94 % 1008,8 hPa 0,0 l/m 1,3 km/h (1 Bft) O 90 4,2 C 5,1 C 0,0 km/h (0 Bft)
30.05.2013 07:05 5,1 C 94 % 1009,1 hPa 0,0 l/m 0,6 km/h (0 Bft) O-NO 67 4,2 C 5,1 C 0,0 km/h (0 Bft)
30.05.2013 07:10 5,2 C 94 % 1009,1 hPa 0,0 l/m 0,2 km/h (0 Bft) O-NO 67 4,3 C 5,1 C 1,6 km/h (1 Bft)
30.05.2013 07:15 5,2 C 94 % 1009,1 hPa 0,0 l/m 0,2 km/h (0 Bft) O-NO 67 4,3 C 5,2 C 0,0 km/h (0 Bft)
30.05.2013 07:20 5,3 C 95 % 1009,1 hPa 0,0 l/m 0,3 km/h (0 Bft) O-SO 112 4,6 C 5,3 C 1,8 km/h (1 Bft)
30.05.2013 07:25 5,4 C 95 % 1008,9 hPa 0,0 l/m 0,5 km/h (0 Bft) NO 45 4,7 C 5,3 C 0,0 km/h (0 Bft)
30.05.2013 07:30 5,4 C 95 % 1008,9 hPa 0,0 l/m 0,5 km/h (0 Bft) S 180 4,7 C 5,4 C 0,0 km/h (0 Bft)
30.05.2013 07:35 5,5 C 95 % 1008,9 hPa 0,0 l/m 0,2 km/h (0 Bft) S 180 4,8 C 5,4 C 1,8 km/h (1 Bft)
30.05.2013 07:40 5,6 C 95 % 1008,9 hPa 0,0 l/m 0,0 km/h (0 Bft) O-NO 67 4,9 C 5,4 C 0,0 km/h (0 Bft)
30.05.2013 07:45 5,7 C 95 % 1009,1 hPa 0,0 l/m 0,0 km/h (0 Bft) SO 135 5,0 C 5,6 C 0,0 km/h (0 Bft)
30.05.2013 07:50 5,8 C 95 % 1009,1 hPa 0,0 l/m 0,0 km/h (0 Bft) W-SW 247 5,1 C 5,8 C 0,0 km/h (0 Bft)
30.05.2013 07:55 5,8 C 95 % 1009,1 hPa 0,0 l/m 0,0 km/h (0 Bft) S 180 5,1 C 5,9 C 1,8 km/h (1 Bft)
30.05.2013 08:00 5,8 C 95 % 1009,1 hPa 0,0 l/m 0,8 km/h (0 Bft) O-SO 112 5,1 C 6,0 C 5,8 km/h (2 Bft)
30.05.2013 08:05 6,0 C 94 % 1009,3 hPa 0,0 l/m 1,6 km/h (1 Bft) SO 135 5,1 C 6,0 C 2,6 km/h (1 Bft)
30.05.2013 08:10 6,2 C 94 % 1009,3 hPa 0,0 l/m 1,8 km/h (1 Bft) S-SO 157 5,3 C 6,4 C 2,7 km/h (1 Bft)
30.05.2013 08:15 6,3 C 94 % 1009,3 hPa 0,0 l/m 1,9 km/h (1 Bft) O-SO 112 5,4 C 6,5 C 4,3 km/h (1 Bft)
30.05.2013 08:20 6,4 C 94 % 1009,3 hPa 0,0 l/m 1,6 km/h (1 Bft) SO 135 5,5 C 6,7 C 6,4 km/h (2 Bft)
30.05.2013 08:25 6,4 C 94 % 1009,2 hPa 0,0 l/m 1,4 km/h (1 Bft) S-SO 157 5,5 C 6,8 C 2,4 km/h (1 Bft)
30.05.2013 08:30 6,4 C 94 % 1009,2 hPa 0,0 l/m 2,1 km/h (1 Bft) SO 135 5,5 C 6,9 C 6,3 km/h (2 Bft)
30.05.2013 08:35 6,3 C 94 % 1009,2 hPa 0,0 l/m 2,6 km/h (1 Bft) SO 135 5,4 C 6,9 C 4,5 km/h (1 Bft)
30.05.2013 08:40 6,4 C 94 % 1009,2 hPa 0,0 l/m 3,1 km/h (1 Bft) O 90 5,5 C 6,9 C 3,1 km/h (1 Bft)
30.05.2013 08:45 6,5 C 94 % 1009,3 hPa 0,0 l/m 2,3 km/h (1 Bft) S-SO 157 5,6 C 6,9 C 2,1 km/h (1 Bft)
30.05.2013 08:50 6,6 C 94 % 1009,3 hPa 0,0 l/m 2,1 km/h (1 Bft) O-SO 112 5,7 C 6,9 C 3,1 km/h (1 Bft)
30.05.2013 08:55 6,8 C 94 % 1009,3 hPa 0,0 l/m 2,4 km/h (1 Bft) S-SO 157 5,9 C 7,1 C 4,8 km/h (1 Bft)
30.05.2013 09:00 6,8 C 94 % 1009,3 hPa 0,0 l/m 3,5 km/h (1 Bft) S-SW 202 5,9 C 7,3 C 7,4 km/h (2 Bft)
30.05.2013 09:05 7,0 C 94 % 1009,2 hPa 0,0 l/m 3,7 km/h (1 Bft) SO 135 6,1 C 7,3 C 4,2 km/h (1 Bft)
30.05.2013 09:10 7,3 C 94 % 1009,2 hPa 0,0 l/m 3,5 km/h (1 Bft) S-SO 157 6,4 C 7,8 C 6,0 km/h (2 Bft)
30.05.2013 09:15 7,3 C 93 % 1009,2 hPa 0,0 l/m 4,3 km/h (1 Bft) S-SO 157 6,2 C 7,6 C 11,4 km/h (2 Bft)
30.05.2013 09:20 7,5 C 93 % 1009,2 hPa 0,0 l/m 5,3 km/h (1 Bft) S-SO 157 6,4 C 7,5 C 6,1 km/h (2 Bft)
30.05.2013 09:25 7,6 C 92 % 1009,2 hPa 0,0 l/m 5,6 km/h (1 Bft) O-SO 112 6,4 C 7,4 C 7,4 km/h (2 Bft)
30.05.2013 09:30 7,8 C 90 % 1009,2 hPa 0,0 l/m 5,1 km/h (1 Bft) S 180 6,3 C 7,9 C 5,0 km/h (1 Bft)
30.05.2013 09:35 7,9 C 90 % 1009,2 hPa 0,0 l/m 5,0 km/h (1 Bft) S 180 6,4 C 8,1 C 8,0 km/h (2 Bft)
30.05.2013 09:40 7,5 C 88 % 1009,2 hPa 0,0 l/m 5,1 km/h (1 Bft) S-SW 202 5,6 C 8,0 C 7,2 km/h (2 Bft)
30.05.2013 09:45 7,4 C 88 % 1009,2 hPa 0,0 l/m 4,7 km/h (1 Bft) O-SO 112 5,5 C 7,8 C 3,5 km/h (1 Bft)
30.05.2013 09:50 7,7 C 89 % 1009,2 hPa 0,0 l/m 3,7 km/h (1 Bft) W-SW 247 6,0 C 8,2 C 3,9 km/h (1 Bft)
30.05.2013 09:55 8,1 C 88 % 1009,2 hPa 0,0 l/m 3,9 km/h (1 Bft) S 180 6,2 C 8,4 C 5,8 km/h (2 Bft)
30.05.2013 10:00 8,4 C 88 % 1009,2 hPa 0,0 l/m 4,3 km/h (1 Bft) S 180 6,5 C 8,6 C 6,0 km/h (2 Bft)
30.05.2013 10:05 8,2 C 87 % 1009,4 hPa 0,0 l/m 4,2 km/h (1 Bft) SO 135 6,2 C 8,9 C 1,8 km/h (1 Bft)
30.05.2013 10:10 8,4 C 85 % 1009,4 hPa 0,0 l/m 4,0 km/h (1 Bft) S-SO 157 6,0 C 9,2 C 5,6 km/h (1 Bft)
30.05.2013 10:15 8,6 C 85 % 1009,4 hPa 0,0 l/m 4,2 km/h (1 Bft) SO 135 6,2 C 9,3 C 4,5 km/h (1 Bft)
30.05.2013 10:20 8,7 C 85 % 1009,4 hPa 0,0 l/m 3,5 km/h (1 Bft) SW 225 6,3 C 9,7 C 0,0 km/h (0 Bft)
30.05.2013 10:25 8,7 C 85 % 1009,6 hPa 0,0 l/m 2,7 km/h (1 Bft) S 180 6,3 C 9,9 C 0,0 km/h (0 Bft)
30.05.2013 10:30 8,1 C 85 % 1009,6 hPa 0,0 l/m 2,6 km/h (1 Bft) S 180 5,7 C 9,5 C 4,2 km/h (1 Bft)
30.05.2013 10:35 8,0 C 86 % 1009,6 hPa 0,0 l/m 2,4 km/h (1 Bft) S-SW 202 5,8 C 9,1 C 2,3 km/h (1 Bft)
30.05.2013 10:40 8,0 C 85 % 1009,6 hPa 0,0 l/m 3,7 km/h (1 Bft) SW 225 5,6 C 8,7 C 5,3 km/h (1 Bft)
30.05.2013 10:45 8,2 C 85 % 1009,6 hPa 0,0 l/m 4,2 km/h (1 Bft) S-SO 157 5,8 C 8,7 C 4,7 km/h (1 Bft)
30.05.2013 10:50 8,6 C 86 % 1009,6 hPa 0,0 l/m 3,5 km/h (1 Bft) O-SO 112 6,4 C 9,1 C 3,7 km/h (1 Bft)
30.05.2013 10:55 8,7 C 85 % 1009,6 hPa 0,0 l/m 3,9 km/h (1 Bft) S 180 6,3 C 9,2 C 5,8 km/h (2 Bft)
30.05.2013 11:00 9,1 C 86 % 1009,6 hPa 0,0 l/m 3,1 km/h (1 Bft) SW 225 6,9 C 9,3 C 3,7 km/h (1 Bft)
30.05.2013 11:05 9,2 C 84 % 1009,8 hPa 0,0 l/m 2,3 km/h (1 Bft) W-SW 247 6,6 C 9,4 C 4,7 km/h (1 Bft)
30.05.2013 11:10 9,5 C 85 % 1009,8 hPa 0,0 l/m 2,6 km/h (1 Bft) S 180 7,1 C 9,7 C 5,0 km/h (1 Bft)
30.05.2013 11:15 9,2 C 84 % 1009,8 hPa 0,0 l/m 2,4 km/h (1 Bft) W-SW 247 6,6 C 9,7 C 2,3 km/h (1 Bft)
30.05.2013 11:20 8,8 C 83 % 1009,8 hPa 0,0 l/m 2,3 km/h (1 Bft) SO 135 6,1 C 9,8 C 4,3 km/h (1 Bft)
30.05.2013 11:25 8,8 C 85 % 1009,8 hPa 0,0 l/m 1,8 km/h (1 Bft) W-SW 247 6,4 C 9,7 C 2,3 km/h (1 Bft)
30.05.2013 11:30 8,6 C 85 % 1009,8 hPa 0,0 l/m 1,8 km/h (1 Bft) S 180 6,2 C 9,4 C 4,0 km/h (1 Bft)
30.05.2013 11:35 8,1 C 83 % 1009,8 hPa 0,0 l/m 2,7 km/h (1 Bft) S 180 5,4 C 8,5 C 3,1 km/h (1 Bft)
30.05.2013 11:40 7,8 C 84 % 1009,8 hPa 0,0 l/m 4,8 km/h (1 Bft) S 180 5,3 C 7,2 C 5,3 km/h (1 Bft)
30.05.2013 11:45 7,7 C 85 % 1009,9 hPa 0,0 l/m 5,6 km/h (1 Bft) S 180 5,3 C 6,6 C 7,9 km/h (2 Bft)
30.05.2013 11:50 7,0 C 85 % 1009,9 hPa 0,0 l/m 7,7 km/h (2 Bft) S 180 4,7 C 4,3 C 15,8 km/h (3 Bft)
30.05.2013 11:55 6,8 C 86 % 1009,9 hPa 0,7 l/m 8,4 km/h (2 Bft) O-SO 112 4,6 C 3,2 C 9,2 km/h (2 Bft)
30.05.2013 12:00 7,0 C 88 % 1009,9 hPa 0,0 l/m 6,0 km/h (2 Bft) S 180 5,2 C 5,4 C 5,3 km/h (1 Bft)
30.05.2013 12:05 7,2 C 88 % 1009,9 hPa 0,0 l/m 5,0 km/h (1 Bft) SO 135 5,3 C 5,9 C 6,1 km/h (2 Bft)
30.05.2013 12:10 7,2 C 89 % 1009,9 hPa 0,0 l/m 5,3 km/h (1 Bft) S 180 5,5 C 5,9 C 7,4 km/h (2 Bft)
30.05.2013 12:15 7,3 C 89 % 1009,9 hPa 0,0 l/m 5,3 km/h (1 Bft) O-SO 112 5,6 C 5,9 C 5,1 km/h (1 Bft)
30.05.2013 12:20 7,5 C 89 % 1009,9 hPa 0,0 l/m 4,2 km/h (1 Bft) S-SW 202 5,8 C 6,7 C 3,1 km/h (1 Bft)
30.05.2013 12:25 7,5 C 89 % 1009,9 hPa 0,0 l/m 3,2 km/h (1 Bft) S-SO 157 5,8 C 7,1 C 5,0 km/h (1 Bft)
30.05.2013 12:30 7,3 C 89 % 1009,9 hPa 0,0 l/m 2,1 km/h (1 Bft) W-SW 247 5,6 C 6,9 C 0,0 km/h (0 Bft)
30.05.2013 12:35 7,0 C 90 % 1009,9 hPa 0,0 l/m 1,3 km/h (1 Bft) SW 225 5,5 C 6,9 C 0,0 km/h (0 Bft)
30.05.2013 12:40 6,9 C 90 % 1009,9 hPa 0,7 l/m 0,5 km/h (0 Bft) S 180 5,4 C 6,9 C 3,5 km/h (1 Bft)
30.05.2013 12:45 6,9 C 90 % 1010,1 hPa 0,0 l/m 1,6 km/h (1 Bft) S-SW 202 5,4 C 6,8 C 4,8 km/h (1 Bft)
30.05.2013 12:50 6,9 C 90 % 1010,1 hPa 0,0 l/m 3,1 km/h (1 Bft) W-SW 247 5,4 C 6,6 C 2,4 km/h (1 Bft)
30.05.2013 12:55 6,8 C 90 % 1010,1 hPa 0,0 l/m 3,1 km/h (1 Bft) N-NO 22 5,3 C 6,6 C 2,3 km/h (1 Bft)
30.05.2013 13:00 6,6 C 91 % 1010,1 hPa 0,7 l/m 2,6 km/h (1 Bft) S 180 5,2 C 6,4 C 3,1 km/h (1 Bft)
30.05.2013 13:05 6,8 C 91 % 1010,1 hPa 0,0 l/m 2,3 km/h (1 Bft) W-NW 292 5,4 C 6,4 C 3,7 km/h (1 Bft)
30.05.2013 13:10 6,8 C 91 % 1010,1 hPa 0,7 l/m 2,4 km/h (1 Bft) S-SO 157 5,4 C 6,6 C 0,0 km/h (0 Bft)
30.05.2013 13:15 6,8 C 91 % 1010,1 hPa 0,0 l/m 2,4 km/h (1 Bft) S-SO 157 5,4 C 6,6 C 0,0 km/h (0 Bft)
30.05.2013 13:20 7,0 C 91 % 1010,1 hPa 0,0 l/m 2,1 km/h (1 Bft) S-SO 157 5,6 C 7,0 C 5,6 km/h (1 Bft)
30.05.2013 13:25 7,3 C 91 % 1009,9 hPa 0,0 l/m 3,1 km/h (1 Bft) S 180 5,9 C 7,1 C 6,9 km/h (2 Bft)
30.05.2013 13:30 7,3 C 91 % 1009,9 hPa 0,0 l/m 5,1 km/h (1 Bft) S-SO 157 5,9 C 6,6 C 6,6 km/h (2 Bft)
30.05.2013 13:35 7,4 C 91 % 1009,9 hPa 0,7 l/m 4,2 km/h (1 Bft) S 180 6,0 C 7,1 C 4,8 km/h (1 Bft)
30.05.2013 13:40 7,8 C 91 % 1009,9 hPa 0,0 l/m 3,5 km/h (1 Bft) S 180 6,4 C 7,6 C 7,6 km/h (2 Bft)
30.05.2013 13:45 7,7 C 91 % 1010,1 hPa 0,0 l/m 4,5 km/h (1 Bft) S-SO 157 6,3 C 7,1 C 3,7 km/h (1 Bft)
30.05.2013 13:50 7,7 C 91 % 1010,1 hPa 0,0 l/m 2,3 km/h (1 Bft) S 180 6,3 C 7,8 C 0,0 km/h (0 Bft)
30.05.2013 13:55 7,7 C 91 % 1010,1 hPa 0,0 l/m 2,3 km/h (1 Bft) S 180 6,3 C 7,8 C 0,0 km/h (0 Bft)
30.05.2013 14:00 8,6 C 91 % 1010,1 hPa 0,0 l/m 1,4 km/h (1 Bft) S-SO 157 7,2 C 8,5 C 4,5 km/h (1 Bft)
30.05.2013 14:05 8,9 C 91 % 1010,2 hPa 0,0 l/m 1,8 km/h (1 Bft) S 180 7,5 C 8,7 C 4,8 km/h (1 Bft)
30.05.2013 14:10 9,3 C 90 % 1010,2 hPa 0,0 l/m 3,4 km/h (1 Bft) S 180 7,7 C 10,1 C 6,3 km/h (2 Bft)
30.05.2013 14:15 9,5 C 88 % 1010,2 hPa 0,0 l/m 3,4 km/h (1 Bft) S-SO 157 7,6 C 10,7 C 7,9 km/h (2 Bft)
30.05.2013 14:20 9,5 C 88 % 1010,2 hPa 0,0 l/m 3,4 km/h (1 Bft) S-SO 157 7,6 C 10,7 C 7,9 km/h (2 Bft)
30.05.2013 14:25 9,8 C 88 % 1010,0 hPa 0,0 l/m 3,9 km/h (1 Bft) S 180 7,9 C 10,9 C 4,7 km/h (1 Bft)
30.05.2013 14:30 10,1 C 87 % 1010,0 hPa 0,0 l/m 2,9 km/h (1 Bft) S-SW 202 8,0 C 11,7 C 2,1 km/h (1 Bft)
30.05.2013 14:35 10,4 C 86 % 1010,0 hPa 0,0 l/m 3,1 km/h (1 Bft) SO 135 8,2 C 12,2 C 5,1 km/h (1 Bft)
30.05.2013 14:40 10,6 C 85 % 1010,0 hPa 0,0 l/m 4,5 km/h (1 Bft) S 180 8,2 C 12,4 C 8,4 km/h (2 Bft)
30.05.2013 14:45 10,3 C 84 % 1009,9 hPa 0,0 l/m 4,5 km/h (1 Bft) SO 135 7,7 C 12,4 C 0,0 km/h (0 Bft)
30.05.2013 14:50 10,2 C 84 % 1009,9 hPa 0,0 l/m 3,7 km/h (1 Bft) S 180 7,6 C 12,4 C 2,6 km/h (1 Bft)
30.05.2013 14:55 9,6 C 83 % 1009,9 hPa 0,0 l/m 2,7 km/h (1 Bft) S 180 6,9 C 12,1 C 4,8 km/h (1 Bft)
30.05.2013 15:00 9,0 C 85 % 1009,9 hPa 0,0 l/m 2,7 km/h (1 Bft) S 180 6,6 C 11,2 C 6,0 km/h (2 Bft)
30.05.2013 15:05 8,7 C 86 % 1009,9 hPa 0,0 l/m 3,4 km/h (1 Bft) SO 135 6,5 C 10,5 C 3,1 km/h (1 Bft)
30.05.2013 15:10 7,8 C 86 % 1009,9 hPa 0,0 l/m 4,2 km/h (1 Bft) W-SW 247 5,6 C 8,6 C 8,5 km/h (2 Bft)
30.05.2013 15:15 7,8 C 86 % 1009,9 hPa 0,0 l/m 4,2 km/h (1 Bft) W-SW 247 5,6 C 8,6 C 8,5 km/h (2 Bft)
30.05.2013 15:20 7,9 C 88 % 1009,9 hPa 0,0 l/m 5,8 km/h (2 Bft) O 90 6,0 C 6,8 C 5,5 km/h (1 Bft)
30.05.2013 15:25 7,9 C 88 % 1009,9 hPa 0,0 l/m 5,8 km/h (2 Bft) O 90 6,0 C 6,8 C 5,5 km/h (1 Bft)
30.05.2013 15:30 8,3 C 88 % 1009,9 hPa 0,0 l/m 3,9 km/h (1 Bft) S-SW 202 6,4 C 7,8 C 3,1 km/h (1 Bft)
30.05.2013 15:35 8,1 C 88 % 1009,9 hPa 0,0 l/m 4,2 km/h (1 Bft) S 180 6,2 C 8,1 C 8,7 km/h (2 Bft)
30.05.2013 15:40 8,0 C 88 % 1009,9 hPa 0,0 l/m 5,8 km/h (2 Bft) S 180 6,1 C 7,8 C 16,1 km/h (3 Bft)
30.05.2013 15:45 7,8 C 88 % 1009,8 hPa 0,0 l/m 6,1 km/h (2 Bft) S-SO 157 5,9 C 7,6 C 10,0 km/h (2 Bft)
30.05.2013 15:50 7,2 C 88 % 1009,8 hPa 0,0 l/m 5,8 km/h (2 Bft) S 180 5,3 C 6,9 C 5,5 km/h (1 Bft)
30.05.2013 15:55 7,0 C 88 % 1009,8 hPa 0,0 l/m 6,0 km/h (2 Bft) S 180 5,2 C 6,3 C 13,7 km/h (3 Bft)
30.05.2013 16:00 6,8 C 88 % 1010,2 hPa 0,0 l/m 6,6 km/h (2 Bft) S 180 5,0 C 5,6 C 9,8 km/h (2 Bft)
30.05.2013 16:05 6,8 C 89 % 1010,2 hPa 0,0 l/m 7,7 km/h (2 Bft) S 180 5,1 C 4,0 C 4,2 km/h (1 Bft)
30.05.2013 16:10 6,8 C 89 % 1010,2 hPa 0,0 l/m 6,4 km/h (2 Bft) S-SO 157 5,1 C 5,4 C 17,7 km/h (3 Bft)
30.05.2013 16:15 6,8 C 89 % 1010,2 hPa 0,0 l/m 6,4 km/h (2 Bft) S-SO 157 5,1 C 5,4 C 6,0 km/h (2 Bft)
30.05.2013 16:20 6,9 C 90 % 1010,2 hPa 0,7 l/m 5,5 km/h (1 Bft) S 180 5,4 C 5,7 C 7,7 km/h (2 Bft)
30.05.2013 16:25 6,8 C 90 % 1010,2 hPa 0,0 l/m 5,5 km/h (1 Bft) S-SW 202 5,3 C 5,7 C 4,8 km/h (1 Bft)
30.05.2013 16:30 6,3 C 90 % 1010,2 hPa 0,0 l/m 7,4 km/h (2 Bft) SO 135 4,8 C 3,7 C 10,6 km/h (2 Bft)
30.05.2013 16:35 6,3 C 90 % 1010,2 hPa 0,0 l/m 7,4 km/h (2 Bft) SO 135 4,8 C 3,7 C 10,6 km/h (2 Bft)
30.05.2013 16:40 6,4 C 90 % 1009,9 hPa 0,0 l/m 6,3 km/h (2 Bft) S-SO 157 4,9 C 4,8 C 3,7 km/h (1 Bft)
30.05.2013 16:45 6,6 C 90 % 1009,9 hPa 0,0 l/m 4,3 km/h (1 Bft) S-SO 157 5,1 C 5,8 C 7,4 km/h (2 Bft)
30.05.2013 16:50 6,6 C 90 % 1009,9 hPa 0,0 l/m 4,3 km/h (1 Bft) S-SO 157 5,1 C 5,8 C 7,4 km/h (2 Bft)
30.05.2013 16:55 6,6 C 90 % 1009,9 hPa 0,0 l/m 4,0 km/h (1 Bft) S 180 5,1 C 5,9 C 4,2 km/h (1 Bft)
30.05.2013 17:00 6,7 C 90 % 1009,6 hPa 0,0 l/m 4,5 km/h (1 Bft) S 180 5,2 C 5,8 C 4,2 km/h (1 Bft)
30.05.2013 17:05 6,6 C 90 % 1009,6 hPa 0,0 l/m 4,8 km/h (1 Bft) W-SW 247 5,1 C 5,8 C 6,4 km/h (2 Bft)
30.05.2013 17:10 6,8 C 90 % 1009,6 hPa 0,0 l/m 4,8 km/h (1 Bft) S-SO 157 5,3 C 5,8 C 3,2 km/h (1 Bft)
30.05.2013 17:15 7,0 C 90 % 1009,6 hPa 0,0 l/m 4,5 km/h (1 Bft) S 180 5,5 C 6,2 C 5,1 km/h (1 Bft)
30.05.2013 17:20 7,0 C 90 % 1009,6 hPa 0,0 l/m 4,5 km/h (1 Bft) S 180 5,5 C 6,2 C 5,1 km/h (1 Bft)
30.05.2013 17:25 7,0 C 90 % 1009,6 hPa 0,0 l/m 4,7 km/h (1 Bft) S-SO 157 5,5 C 6,3 C 11,1 km/h (2 Bft)
30.05.2013 17:30 6,8 C 90 % 1009,6 hPa 0,0 l/m 4,8 km/h (1 Bft) S 180 5,3 C 6,2 C 5,0 km/h (1 Bft)
30.05.2013 17:35 6,6 C 90 % 1009,6 hPa 0,0 l/m 5,0 km/h (1 Bft) O 90 5,1 C 5,9 C 3,7 km/h (1 Bft)
30.05.2013 17:40 6,5 C 91 % 1009,5 hPa 0,0 l/m 2,3 km/h (1 Bft) W-SW 247 5,1 C 6,6 C 0,0 km/h (0 Bft)
30.05.2013 17:45 6,5 C 91 % 1009,5 hPa 0,0 l/m 2,3 km/h (1 Bft) W-SW 247 5,1 C 6,6 C 0,0 km/h (0 Bft)
30.05.2013 17:50 6,5 C 90 % 1009,5 hPa 0,0 l/m 1,1 km/h (1 Bft) N 360 5,0 C 6,6 C 0,0 km/h (0 Bft)
30.05.2013 17:55 6,6 C 91 % 1009,5 hPa 0,0 l/m 1,6 km/h (1 Bft) S 180 5,2 C 6,6 C 6,4 km/h (2 Bft)
30.05.2013 18:00 6,8 C 91 % 1009,2 hPa 0,0 l/m 3,2 km/h (1 Bft) W 270 5,4 C 6,7 C 3,5 km/h (1 Bft)
30.05.2013 18:05 6,9 C 91 % 1009,2 hPa 0,0 l/m 3,2 km/h (1 Bft) O-SO 112 5,5 C 6,7 C 4,0 km/h (1 Bft)
30.05.2013 18:10 6,9 C 91 % 1009,2 hPa 0,0 l/m 2,9 km/h (1 Bft) SO 135 5,5 C 6,7 C 3,5 km/h (1 Bft)
30.05.2013 18:15 6,9 C 92 % 1009,2 hPa 0,0 l/m 2,7 km/h (1 Bft) S 180 5,7 C 6,8 C 5,3 km/h (1 Bft)
30.05.2013 18:20 6,9 C 92 % 1009,3 hPa 0,0 l/m 3,2 km/h (1 Bft) SO 135 5,7 C 6,8 C 4,8 km/h (1 Bft)
30.05.2013 18:25 6,8 C 91 % 1009,3 hPa 0,0 l/m 4,0 km/h (1 Bft) S-SW 202 5,4 C 6,4 C 4,8 km/h (1 Bft)
30.05.2013 18:30 6,7 C 91 % 1009,3 hPa 0,0 l/m 4,0 km/h (1 Bft) SO 135 5,3 C 6,4 C 5,0 km/h (1 Bft)
30.05.2013 18:35 6,7 C 91 % 1009,3 hPa 0,0 l/m 4,0 km/h (1 Bft) SO 135 5,3 C 6,4 C 5,0 km/h (1 Bft)
30.05.2013 18:40 6,4 C 91 % 1009,4 hPa 0,0 l/m 5,5 km/h (1 Bft) W-SW 247 5,0 C 5,6 C 9,2 km/h (2 Bft)
30.05.2013 18:45 6,4 C 91 % 1009,4 hPa 0,0 l/m 5,5 km/h (1 Bft) W-SW 247 5,0 C 5,6 C 9,2 km/h (2 Bft)
30.05.2013 18:50 6,3 C 91 % 1009,4 hPa 0,0 l/m 6,8 km/h (2 Bft) S-SO 157 4,9 C 4,6 C 9,0 km/h (2 Bft)
30.05.2013 18:55 6,0 C 91 % 1009,4 hPa 0,7 l/m 6,4 km/h (2 Bft) S-SO 157 4,6 C 4,4 C 12,2 km/h (2 Bft)
30.05.2013 19:00 6,0 C 91 % 1009,4 hPa 0,0 l/m 6,4 km/h (2 Bft) S-SO 157 4,6 C 4,4 C 12,2 km/h (2 Bft)
30.05.2013 19:05 5,9 C 92 % 1009,6 hPa 0,0 l/m 5,8 km/h (2 Bft) S-SO 157 4,7 C 4,6 C 4,3 km/h (1 Bft)
30.05.2013 19:10 5,7 C 92 % 1009,6 hPa 0,0 l/m 7,1 km/h (2 Bft) SO 135 4,5 C 3,3 C 7,4 km/h (2 Bft)
30.05.2013 19:15 5,7 C 92 % 1009,6 hPa 0,0 l/m 7,1 km/h (2 Bft) SO 135 4,5 C 3,3 C 7,4 km/h (2 Bft)
30.05.2013 19:20 5,7 C 92 % 1009,6 hPa 0,0 l/m 7,9 km/h (2 Bft) O-SO 112 4,5 C 2,2 C 8,7 km/h (2 Bft)
30.05.2013 19:25 5,7 C 93 % 1009,2 hPa 0,0 l/m 7,6 km/h (2 Bft) O 90 4,7 C 2,6 C 13,7 km/h (3 Bft)
30.05.2013 19:30 5,7 C 93 % 1009,2 hPa 0,0 l/m 7,1 km/h (2 Bft) S-SO 157 4,7 C 3,3 C 8,7 km/h (2 Bft)
30.05.2013 19:35 5,7 C 93 % 1009,2 hPa 0,0 l/m 6,3 km/h (2 Bft) S-SO 157 4,7 C 4,2 C 9,2 km/h (2 Bft)
30.05.2013 19:40 5,7 C 93 % 1009,2 hPa 0,0 l/m 5,3 km/h (1 Bft) SO 135 4,7 C 4,5 C 8,0 km/h (2 Bft)
30.05.2013 19:45 5,7 C 93 % 1009,5 hPa 0,0 l/m 5,1 km/h (1 Bft) S-SO 157 4,7 C 4,6 C 6,1 km/h (2 Bft)
30.05.2013 19:50 5,6 C 93 % 1009,5 hPa 0,0 l/m 4,7 km/h (1 Bft) S 180 4,6 C 4,7 C 6,1 km/h (2 Bft)
30.05.2013 19:55 5,6 C 94 % 1009,5 hPa 0,0 l/m 4,5 km/h (1 Bft) O 90 4,7 C 4,7 C 6,6 km/h (2 Bft)
30.05.2013 20:00 5,4 C 94 % 1009,4 hPa 0,7 l/m 5,3 km/h (1 Bft) S 180 4,5 C 4,4 C 4,7 km/h (1 Bft)
30.05.2013 20:05 5,4 C 94 % 1009,4 hPa 0,0 l/m 5,1 km/h (1 Bft) S 180 4,5 C 4,3 C 4,7 km/h (1 Bft)
30.05.2013 20:10 5,3 C 94 % 1009,4 hPa 0,0 l/m 4,5 km/h (1 Bft) SO 135 4,4 C 4,5 C 6,0 km/h (2 Bft)
30.05.2013 20:15 5,3 C 94 % 1009,4 hPa 0,0 l/m 4,7 km/h (1 Bft) S-SO 157 4,4 C 4,3 C 3,1 km/h (1 Bft)
30.05.2013 20:20 5,3 C 94 % 1009,2 hPa 0,0 l/m 5,3 km/h (1 Bft) S 180 4,4 C 4,1 C 5,1 km/h (1 Bft)
30.05.2013 20:25 5,3 C 94 % 1009,2 hPa 0,0 l/m 5,3 km/h (1 Bft) S 180 4,4 C 4,1 C 5,1 km/h (1 Bft)
30.05.2013 20:30 5,2 C 94 % 1009,2 hPa 0,0 l/m 5,1 km/h (1 Bft) SW 225 4,3 C 4,2 C 4,0 km/h (1 Bft)
30.05.2013 20:35 5,2 C 94 % 1009,2 hPa 0,0 l/m 4,5 km/h (1 Bft) SO 135 4,3 C 4,4 C 3,2 km/h (1 Bft)
30.05.2013 20:40 5,2 C 94 % 1009,2 hPa 0,0 l/m 2,6 km/h (1 Bft) O 90 4,3 C 5,1 C 0,0 km/h (0 Bft)
30.05.2013 20:45 5,2 C 94 % 1009,1 hPa 0,0 l/m 1,4 km/h (1 Bft) O 90 4,3 C 5,1 C 1,6 km/h (1 Bft)
30.05.2013 20:50 5,1 C 94 % 1009,1 hPa 0,0 l/m 0,6 km/h (0 Bft) NO 45 4,2 C 5,1 C 0,0 km/h (0 Bft)
30.05.2013 20:55 5,1 C 94 % 1009,1 hPa 0,0 l/m 0,6 km/h (0 Bft) SO 135 4,2 C 5,0 C 0,0 km/h (0 Bft)
30.05.2013 21:00 5,1 C 95 % 1009,1 hPa 0,7 l/m 0,6 km/h (0 Bft) SO 135 4,4 C 5,0 C 0,0 km/h (0 Bft)
30.05.2013 21:05 5,1 C 95 % 1008,7 hPa 0,0 l/m 0,3 km/h (0 Bft) O-SO 112 4,4 C 5,0 C 0,0 km/h (0 Bft)
30.05.2013 21:10 5,1 C 95 % 1008,7 hPa 0,0 l/m 0,5 km/h (0 Bft) SO 135 4,4 C 5,0 C 0,0 km/h (0 Bft)
30.05.2013 21:15 5,1 C 95 % 1008,7 hPa 0,0 l/m 1,4 km/h (1 Bft) SW 225 4,4 C 5,0 C 0,0 km/h (0 Bft)
30.05.2013 21:20 5,1 C 95 % 1008,7 hPa 0,0 l/m 2,4 km/h (1 Bft) S-SW 202 4,4 C 5,0 C 3,5 km/h (1 Bft)
30.05.2013 21:25 5,1 C 95 % 1008,6 hPa 0,0 l/m 2,3 km/h (1 Bft) S-SO 157 4,4 C 5,0 C 4,0 km/h (1 Bft)
30.05.2013 21:30 5,1 C 95 % 1008,6 hPa 0,0 l/m 2,7 km/h (1 Bft) S-SW 202 4,4 C 5,0 C 0,0 km/h (0 Bft)
30.05.2013 21:35 5,2 C 95 % 1008,6 hPa 0,7 l/m 3,1 km/h (1 Bft) O-SO 112 4,5 C 5,1 C 3,7 km/h (1 Bft)
30.05.2013 21:40 5,2 C 95 % 1008,6 hPa 0,0 l/m 3,2 km/h (1 Bft) S 180 4,5 C 5,0 C 3,4 km/h (1 Bft)
30.05.2013 21:45 5,2 C 95 % 1008,6 hPa 0,0 l/m 3,2 km/h (1 Bft) S 180 4,5 C 5,0 C 3,4 km/h (1 Bft)
30.05.2013 21:50 5,3 C 95 % 1008,6 hPa 0,0 l/m 3,1 km/h (1 Bft) SW 225 4,6 C 5,1 C 1,8 km/h (1 Bft)
30.05.2013 21:55 5,3 C 96 % 1008,6 hPa 0,0 l/m 3,1 km/h (1 Bft) S 180 4,7 C 5,1 C 4,5 km/h (1 Bft)
30.05.2013 22:00 5,3 C 96 % 1008,6 hPa 0,0 l/m 3,1 km/h (1 Bft) S 180 4,7 C 5,1 C 4,5 km/h (1 Bft)
30.05.2013 22:05 5,3 C 96 % 1008,3 hPa 0,0 l/m 2,7 km/h (1 Bft) SW 225 4,7 C 5,1 C 2,4 km/h (1 Bft)
30.05.2013 22:10 5,3 C 96 % 1008,3 hPa 0,0 l/m 2,1 km/h (1 Bft) S-SW 202 4,7 C 5,2 C 4,0 km/h (1 Bft)
30.05.2013 22:15 5,3 C 96 % 1008,3 hPa 0,0 l/m 2,1 km/h (1 Bft) S-SW 202 4,7 C 5,2 C 4,0 km/h (1 Bft)
30.05.2013 22:20 5,3 C 96 % 1008,3 hPa 0,0 l/m 1,9 km/h (1 Bft) O 90 4,7 C 5,2 C 3,5 km/h (1 Bft)
30.05.2013 22:25 5,3 C 96 % 1008,4 hPa 0,0 l/m 2,6 km/h (1 Bft) S-SW 202 4,7 C 5,2 C 2,9 km/h (1 Bft)
30.05.2013 22:30 5,4 C 96 % 1008,4 hPa 0,0 l/m 3,1 km/h (1 Bft) S-SO 157 4,8 C 5,2 C 3,4 km/h (1 Bft)
30.05.2013 22:35 5,4 C 96 % 1008,4 hPa 0,7 l/m 2,6 km/h (1 Bft) SO 135 4,8 C 5,3 C 3,4 km/h (1 Bft)
30.05.2013 22:40 5,4 C 96 % 1008,4 hPa 0,0 l/m 2,6 km/h (1 Bft) SO 135 4,8 C 5,3 C 3,4 km/h (1 Bft)
30.05.2013 22:45 5,4 C 96 % 1008,2 hPa 0,0 l/m 3,1 km/h (1 Bft) SO 135 4,8 C 5,3 C 5,3 km/h (1 Bft)
30.05.2013 22:50 5,4 C 96 % 1008,2 hPa 0,0 l/m 3,7 km/h (1 Bft) S 180 4,8 C 4,9 C 6,4 km/h (2 Bft)
30.05.2013 22:55 5,4 C 96 % 1008,2 hPa 0,0 l/m 3,7 km/h (1 Bft) S 180 4,8 C 4,9 C 6,4 km/h (2 Bft)
30.05.2013 23:00 5,4 C 96 % 1008,2 hPa 0,0 l/m 4,3 km/h (1 Bft) SO 135 4,8 C 4,7 C 10,1 km/h (2 Bft)
30.05.2013 23:05 5,4 C 96 % 1008,1 hPa 0,0 l/m 5,0 km/h (1 Bft) SO 135 4,8 C 4,4 C 5,8 km/h (2 Bft)
30.05.2013 23:10 5,4 C 96 % 1008,1 hPa 0,0 l/m 4,0 km/h (1 Bft) S 180 4,8 C 4,9 C 2,1 km/h (1 Bft)
30.05.2013 23:15 5,4 C 96 % 1008,1 hPa 0,0 l/m 4,0 km/h (1 Bft) S 180 4,8 C 4,9 C 2,1 km/h (1 Bft)
30.05.2013 23:20 5,4 C 96 % 1008,1 hPa 0,0 l/m 3,9 km/h (1 Bft) S-SO 157 4,8 C 5,0 C 3,1 km/h (1 Bft)
30.05.2013 23:25 5,5 C 96 % 1007,9 hPa 0,0 l/m 3,9 km/h (1 Bft) S 180 4,9 C 5,0 C 3,2 km/h (1 Bft)
30.05.2013 23:30 5,5 C 96 % 1007,9 hPa 0,0 l/m 3,9 km/h (1 Bft) S 180 4,9 C 5,0 C 3,2 km/h (1 Bft)
30.05.2013 23:35 5,4 C 96 % 1007,9 hPa 0,7 l/m 3,5 km/h (1 Bft) O 90 4,8 C 5,1 C 1,6 km/h (1 Bft)
30.05.2013 23:40 5,4 C 96 % 1007,9 hPa 0,0 l/m 2,9 km/h (1 Bft) SO 135 4,8 C 5,4 C 3,9 km/h (1 Bft)
30.05.2013 23:45 5,5 C 96 % 1008,1 hPa 0,0 l/m 3,7 km/h (1 Bft) S 180 4,9 C 5,1 C 9,3 km/h (2 Bft)
30.05.2013 23:50 5,3 C 96 % 1008,1 hPa 0,0 l/m 4,8 km/h (1 Bft) O-NO 67 4,7 C 4,4 C 1,8 km/h (1 Bft)
30.05.2013 23:55 5,3 C 96 % 1008,1 hPa 0,0 l/m 4,8 km/h (1 Bft) O-NO 67 4,7 C 4,4 C 7,7 km/h (2 Bft)
_ Min-Zeit 00:55 14:55 23:40 - 07:55 - - 00:55 19:20 21:30
Minimum _ 3,1 C 83 % 1007,9 hPa - 0,0 km/h (0 Bft) - - 1,9 C 2,2 C 0,0 km/h (0 Bft)
_ Max-Zeit 14:40 23:55 16:35 23:35 11:55 - - 14:40 14:50 16:10
Maximum _ 10,6 C 96 % 1010,2 hPa 0,7 l/m 8,4 km/h
O-SO (2 Bft)
- - 8,2 C 12,4 C 17,7 km/h
S-SO (3 Bft)
Durchschnitt _ 6,1 C 91 % 1009,1 hPa #8,9 l/m 2,7 km/h (1 Bft) S - 4,8 C 5,8 C 3,5 km/h (1 Bft)